Content
SEND FEEDBACK

Daily
Averages
Monthly
Summary
United Kingdom

LONDON, ENGLAND


Home > Europe > United Kingdom > England
Elevation: 203 feet     Latitude: 51 09N     Longitude: 000 11W

WEATHER
 
SELECT A DAY
Number of Records: 292,925;   Date Range: 7/1/96 - 7/28/14
 
SHARE

PRINT THIS DATA

[ ← Previous Day ]
WEATHER ALMANAC - JANUARY 13, 2013
[ Next Day → ]
[ °C ]   °F
Weather ElementAverageHighLow
Temperature36.1 °F37.4 °F (12:50 am)32 °F (10:50 pm)
Dewpoint29.4 °F35.6 °F (1:50 am)26.6 °F (8:50 am)
Humidity77.2 %93 % (1:50 am)65 % (2:20 pm)
Barometer30.07 in30.12 in (4:20 pm)29.95 in (12:50 am)
Wind Speed9 mph13.8 mph (6:20 am)
Wind Gust18.4 mph (8:50 pm)
Weather ElementAverage
Visibility5.9 mi
Wind DirectionSE (134.9 °)

Weather ElementTotal
Precipitation---
Heating Degree Days30.3 (Base 65)
Averaged from 47 records on January 13, 2013
WEATHER CONDITIONS BREAKOUT
WIND DIRECTION BREAKOUT
WEATHER BY HOUR - JANUARY 13, 2013
[ °C ]   °F
Local TimeTemperatureDewpointHumidityBarometerVisibilityWind DirectionWind SpeedGust SpeedPrecipitationEventsConditions
12:50 AM37.4 °F33.8 °F87 %29.95 in5.6 miENE (60°)6.9 mphMostly Cloudy
1:20 AM37.4 °F33.8 °F87 %29.95 in5.0 miENE (60°)6.9 mphMostly Cloudy
1:50 AM37.4 °F35.6 °F93 %29.98 in4.3 miNE (50°)5.8 mphLight Drizzle
2:20 AM37.4 °F35.6 °F93 %29.98 in4.3 miNE (50°)6.9 mphMostly Cloudy
2:50 AM37.4 °F35.6 °F93 %29.98 in4.3 miNE (40°)6.9 mphMostly Cloudy
3:20 AM37.4 °F35.6 °F93 %29.98 in4.3 miNNE (30°)8.1 mphMostly Cloudy
3:50 AM37.4 °F33.8 °F87 %29.98 in5.6 miNE (40°)11.5 mphMostly Cloudy
4:20 AM37.4 °F33.8 °F87 %29.98 in5.6 miNNE (30°)11.5 mphMostly Cloudy
4:50 AM37.4 °F33.8 °F87 %29.98 in5.6 miNNE (30°)11.5 mphMostly Cloudy
5:20 AM37.4 °F32.0 °F81 %30.01 in5.6 miNE (40°)10.4 mphMostly Cloudy
5:50 AM37.4 °F32.0 °F81 %30.01 in6.2 miNE (40°)12.7 mphMostly Cloudy
6:20 AM37.4 °F32.0 °F81 %30.01 in6.2 miNE (40°)13.8 mphMostly Cloudy
6:50 AM37.4 °F30.2 °F75 %30.04 in6.2 miNNE (30°)10.4 mphMostly Cloudy
7:20 AM35.6 °F30.2 °F81 %30.04 in6.2 miNNE (20°)10.4 mphMostly Cloudy
7:50 AM35.6 °F28.4 °F75 %30.04 in6.2 miNNE (30°)11.5 mphMostly Cloudy
8:20 AM35.6 °F28.4 °F75 %30.06 in6.2 miNNE (20°)10.4 mphMostly Cloudy
8:50 AM35.6 °F26.6 °F70 %30.06 inNE (40°)8.1 mphClear
9:20 AM35.6 °F28.4 °F75 %30.06 in6.2 miNNE (20°)11.5 mphMostly Cloudy
9:50 AM37.4 °F28.4 °F70 %30.06 inNNE (30°)9.2 mphClear
10:20 AM37.4 °F28.4 °F70 %30.09 in6.2 miNNE (20°)11.5 mphMostly Cloudy
10:50 AM37.4 °F28.4 °F70 %30.09 inNNE (20°)11.5 mphClear
11:20 AM37.4 °F28.4 °F70 %30.09 in6.2 miNNE (20°)11.5 mphPartly Cloudy
11:50 AM35.6 °F28.4 °F75 %30.09 in6.2 miNNE (20°)10.4 mphScattered Clouds
12:20 PM37.4 °F28.4 °F70 %30.09 in6.2 miNNE (20°)11.5 mphPartly Cloudy
12:50 PM37.4 °F28.4 °F70 %30.09 in6.2 miNNE (20°)12.7 mphPartly Cloudy
1:20 PM37.4 °F28.4 °F70 %30.09 in6.2 miNNE (20°)11.5 mphPartly Cloudy
1:50 PM37.4 °F28.4 °F70 %30.09 in6.2 miNNE (30°)12.7 mphScattered Clouds
2:20 PM37.4 °F26.6 °F65 %30.09 in6.2 miNNE (20°)11.5 mphPartly Cloudy
2:50 PM37.4 °F26.6 °F65 %30.09 in6.2 miNorth (360°)11.5 mphPartly Cloudy
3:20 PM35.6 °F26.6 °F70 %30.09 in6.2 miNorth (10°)9.2 mphPartly Cloudy
3:50 PM35.6 °F26.6 °F70 %30.09 in6.2 miNNE (20°)6.9 mphScattered Clouds
4:20 PM35.6 °F26.6 °F70 %30.12 in6.2 miNorth (350°)8.1 mphMostly Cloudy
4:50 PM35.6 °F28.4 °F75 %30.12 in6.2 miNorth (10°)8.1 mphMostly Cloudy
5:20 PM35.6 °F28.4 °F75 %30.12 in6.2 miNorth (360°)9.2 mphMostly Cloudy
5:50 PM35.6 °F28.4 °F75 %30.12 in6.2 miNorth (360°)9.2 mphOvercast
6:20 PM35.6 °F28.4 °F75 %30.12 in6.2 miNorth (360°)6.9 mphOvercast
6:50 PM35.6 °F28.4 °F75 %30.12 in6.2 miNorth (360°)6.9 mphOvercast
7:20 PM35.6 °F28.4 °F75 %30.12 in6.2 miNNW (330°)5.8 mphOvercast
7:50 PM35.6 °F28.4 °F75 %30.12 in6.2 miNorth (350°)6.9 mphOvercast
8:20 PM33.8 °F28.4 °F81 %30.12 in6.2 miNNW (330°)6.9 mphMostly Cloudy
8:50 PM33.8 °F26.6 °F75 %30.12 in6.2 miNorth (360°)5.8 mph18.4 mphMostly Cloudy
9:20 PM33.8 °F28.4 °F81 %30.12 in6.2 miNW (320°)4.6 mphMostly Cloudy
9:50 PM33.8 °F26.6 °F75 %30.12 in6.2 miNW (310°)4.6 mphMostly Cloudy
10:20 PM33.8 °F26.6 °F75 %30.12 in6.2 miNW (320°)4.6 mphPartly Cloudy
10:50 PM32.0 °F26.6 °F80 %30.09 in6.2 miNW (310°)5.8 mphPartly Cloudy
11:20 PM32.0 °F26.6 °F80 %30.09 inNW (310°)6.9 mphClear
11:50 PM32.0 °F26.6 °F80 %30.09 inNW (320°)5.8 mphClear
Hourly data recorded from EGKK, located miles away from London, England







STORIES FROM OUR PARTNERS